Other Public Products
Issued by NWS Grand Forks, ND

Home | Current Version | Previous Version | Text Only | Print | Product List | Glossary Off
Versions: 1 2 3 4 5 6 7 8 9 10 11 12 13 14 15 16 17 18 19 20 21 22 23 24 25 26 27 28 29 30 31 32 33 34 35 36 37 38 39 40 41 42 43 44 45 46 47 48 49 50

000
FPUS83 KFGF 120410
OPUFGF
PRAIRIE TO PINES WEATHER ROUNDUP
NATIONAL WEATHER SERVICE EASTERN NORTH DAKOTA/GRAND FORKS ND
1100 PM CDT FRI JUL 11 2014

 **SATELLITE DATA USED TO AUGMENT SKY COVER AT AUTOMATED STATIONS**
 *****  WEATHER ACROSS EASTERN NORTH DAKOTA  *****

CITY           SKY/WX    TMP DP  RH WIND       PRES   REMARKS
GRAND FORKS    CLEAR     64  56  75 NW3       30.01R
GRAND FORKS AF CLEAR     63  58  83 NW6       30.02R
GRAND CITY NWS   N/A     64 N/A N/A N3          N/A
BUXTON         NOT AVBL
DEVILS LAKE    CLEAR     64  55  72 NW8       30.05R
FARGO          CLEAR     70  58  65 N8        30.01R
WAHPETON ARPT  PTCLDY    72  54  53 N6        30.01R
$$

 *****  WEATHER ACROSS CENTRAL AND WESTERN NORTH DAKOTA  *****

CITY           SKY/WX    TMP DP  RH WIND       PRES   REMARKS
JAMESTOWN      MOCLDY    67  56  67 NW8       30.06R
BISMARCK       MOCLDY    71  58  63 N7        30.10R
MINOT          CLEAR     63  55  75 W5        30.09R
MINOT AFB      CLEAR     60  60  99 W7        30.09R
GARRISON         N/A     63  58  83 N3        30.11R
WILLISTON      PTCLDY    62  52  69 N5        30.12R
DICKINSON      MOCLDY    63  57  81 E7        30.12R
HETTINGER      CLOUDY    68  57  68 NE12      30.14R
$$

 *****  OTHER OBSERVATIONS NORTHEAST NORTH DAKOTA  *****

CITY           SKY/WX    TMP DP  RH WIND       PRES   REMARKS
WALHALLA         N/A     64  57  77 W5          N/A
LANGDON        FAIR      57  54  88 W7        30.06R
CAVALIER       FAIR      64  55  72 W7        30.02R
GRAFTON        FAIR      68  57  68 W8        30.01R
CANDO          FAIR      63  55  77 NW7       30.07R
FORT TOTTEN      N/A     65  56  74 NW3       29.95S
ROLLA          FAIR      57  54  88 W7        30.09R
RUGBY          FAIR      59  57  94 W5        30.07S
 ***** THE ABOVE OBSERVATIONS ARE NON NWS ARE NOT QUALITY
        CONTROLLED AND MAY MIS-REPORT RAIN FOR SNOW...
$$

 *****  OTHER OBSERVATIONS SOUTHEAST NORTH DAKOTA *****

CITY           SKY/WX    TMP DP  RH WIND       PRES   REMARKS
COOPERSTOWN    NOT AVBL
VALLEY CITY    FAIR      68  57  68 NW10      30.05R
OAKES          NOT AVBL
GWINNER        CLEAR     72  59  64 N9        30.04R
SHEYENNE NWR     N/A     72  58  61 N6        29.95S
BUFFALO        NOT AVBL
WYNDMERE       NOT AVBL
 ***** THE ABOVE OBSERVATIONS ARE NON NWS ARE NOT QUALITY
       CONTROLLED AND MAY MIS-REPORT RAIN FOR SNOW...
$$

  *****  WEATHER ACROSS NORTHERN MINNESOTA  *****

CITY           SKY/WX    TMP DP  RH WIND       PRES   REMARKS
FLAG ISLAND    HAZE      70  55  60 W9        29.96R VSB<1/4
WARROAD        CLEAR     64  57  77 W5        29.99R
ROSEAU         CLEAR     66  57  72 W7        29.99R
HALLOCK        CLEAR     66  55  68 NW7       30.00R
THF RVR FALLS  CLEAR     66  55  68 NW7       30.01R
HALSTAD          N/A     67  54  61 NW8         N/A
FOSSTON        CLEAR     64  54  68 NW6       30.02R
BAUDETTE       CLEAR     64  54  69 W3        29.98R
WASKISH        NOT AVBL
CROOKSTON      CLEAR     64  55  72 NW7       30.01S
$$
  *****  WEATHER ACROSS CENTRAL AND WEST MINNESOTA  *****

CITY           SKY/WX    TMP DP  RH WIND       PRES   REMARKS
BEMIDJI        CLEAR     65  56  70 W9        30.00R
PARK RAPIDS    CLEAR     66  63  90 W3        30.00S
WADENA         CLEAR     70  63  78 CALM      30.01R
DETROIT LAKES  PTCLDY    70  59  68 NW7       30.04R
MOORHEAD       CLEAR     72  61  68 N7        30.02R
FERGUS FALLS   PTCLDY    73  63  68 CALM      30.01R
ELBOW LAKE     FAIR      73  68  83 CALM      30.01R
MORRIS MN      PTCLDY    72  70  94 NE6       29.99S
STAPLES        CLEAR     66  64  94 CALM      30.01R
WHEATON        PTCLDY    72  66  83 N3        30.02R
$$
  *****  WEATHER ELSEWHERE ACROSS MINNESOTA  *****

CITY           SKY/WX    TMP DP  RH WIND       PRES   REMARKS
DULUTH         PTCLDY    68  65  90 SW7       29.99R
INTRNTL FALLS  CLEAR     65  54  67 NW8       29.95R
ELY            CLEAR     63  61  94 SW3       29.96R
CLOQUET        MOCLDY    70  66  88 S3        29.99S FOG
BRAINERD       CLEAR     76  65  68 CALM      30.00R
HIBBING        FOG       62  60  93 CALM      29.98R VSB 1/4
ALEXANDRIA     CLEAR     72  68  87 CALM      30.03R
SAINT CLOUD    CLEAR     74  71  91 SE3       29.99R
MINNEAPOLIS    MOCLDY    75  70  84 SE5       30.00R
$$

  *****  WEATHER ACROSS SOUTH DAKOTA  *****

CITY           SKY/WX    TMP DP  RH WIND       PRES   REMARKS
SIOUX FALLS    CLOUDY    76  72  87 CALM      30.02S
BROOKINGS      NOT AVBL
WATERTOWN      CLOUDY    75  66  73 CALM      30.03R
HURON          CLOUDY    79  69  71 SE5       29.99R
SISSETON         N/A     73  67  81 NW6       30.01R
ABERDEEN       CLOUDY    73  64  73 N8        30.03R
MITCHELL       CLOUDY    79  75  87 S5        30.00R
PIERRE         CLOUDY    73  65  75 NE5       30.01R
MOBRIDGE       CLOUDY    72  58  61 N10       30.05R
RAPID CITY     CLOUDY    67  59  75 S12       30.12F
$$

  *****  SOME WEATHER IN NEARBY STATES *****

CITY           SKY/WX    TMP DP  RH WIND       PRES   REMARKS
GLASGOW MT     CLEAR     66  55  67 NE9       30.13R
GREAT FALLS MT PTCLDY    66  52  60 NE6       30.14R
CHEYENNE WY    MOCLDY    63  61  93 N8        30.26R
SCOTTSBLUFF NE TSTM      65  64  97 NE18G26   30.18F FOG
OMAHA NE       CLOUDY    79  73  82 SE8       29.99S
DES MOINES IA  CLOUDY    75  71  87 SE6       30.02S
DAVENPORT IA   MOCLDY    74  66  76 SE9       30.08S
CHICAGO IL     CLOUDY    73  58  59 S6        30.13S
EAU CLAIRE WI  MOCLDY    73  67  81 S6        30.02S
LA CROSSE WI   CLOUDY    75  65  70 S6        30.04S
$$

  *****  SOME NATIONAL WEATHER *****

CITY           SKY/WX    TMP DP  RH WIND       PRES   REMARKS
LA GUARDIA NY  PTCLDY    72  63  73 S5        30.22R
RALEIGH NC     CLEAR     70  67  90 CALM      30.21S
ATLANTA GA     MOCLDY    75  63  66 E3        30.20F
NEW ORLEANS LA CLOUDY    77  73  87 CALM      30.14R
OKLAHOMA CITY  CLEAR     79  62  56 S7        30.09R
ALBUQUERQUE NM CLOUDY    71  58  63 SW7       30.26R
SALT LAKE CITY PTCLDY    77  59  53 N7        30.06S
LOS ANGELES CA PTCLDY    68  60  75 W13       29.98R
BOISE ID       CLOUDY    88  43  20 W10       29.94R
SEATTLE WA     PTCLDY    81  52  36 N6        29.99R
$$

*** WEATHER ACROSS MANITOBA...SASKATCHEWAN AND ONTARIO ***
                ***ONTARIO***

CITY           SKY/WX    TMP DP  RH WIND       PRES   REMARKS
GERALDTON      CLOUDY    61  59  94 SW12      29.87S
THUNDER BAY    PTCLDY    55  55 100 CALM      29.90S
SIOUX LOOKOUT  PTCLDY    64  54  68 W6        29.90R
TORONTO        NOT AVBL
BIG TROUT LK   CLOUDY    59  55  88 W9G18     29.68R
PICKLE LAKE    NOT AVBL
DRYDEN         CLEAR     64  52  63 W7        29.92R
KENORA         PTCLDY    66  54  63 NW6       29.97R
$$
                *** MANITOBA***

CITY           SKY/WX    TMP DP  RH WIND       PRES   REMARKS
BRANDON        CLEAR     59  55  88 NW7       30.05R
DAUPHIN        CLEAR     59  54  82 W9        30.00R
ISLAND LAKE    PTCLDY    61  50  67 W13G18    29.78S
PILOT MOUND      N/A     55  52  88 W5          N/A
THE PAS        CLEAR     61  46  59 SW7       29.87S
THOMPSON       PTCLDY    50  48  93 W5        29.72S
WINNIPEG       MOCLDY    64  55  72 W7        29.99R
LYNN LAKE      CLEAR     54  46  76 W8        29.76S
CHURCHILL      LGT RAIN  52  52 100 W17G25    29.38F
GILLAM         MOCLDY    55  46  71 W24G37    29.59R
$$
                ***SASKATCHEWAN***

CITY           SKY/WX    TMP DP  RH WIND       PRES   REMARKS
ESTEVAN        NOT AVBL
KINDERSLEY     PTCLDY    61  52  72 S3        30.11R
LLOYDMINSTER   CLEAR     59  54  82 SW9       30.05S
PRINCE ALBERT  PTCLDY    57  50  77 N5        29.99R
REGINA         PTCLDY    57  54  88 W7        30.11R


USA.gov is the U.S. government's official web portal to all federal, state and local government web resources and services.